,,Stat5,,Stat1,,Stat2,,Stat3,,Stat4,,Wind1,,Wind1,
time,status,PA1M_AVG,status,PR1M_SUM,status,RH1M_AVG,status,SR1M_AVG,status,TA1M_AVG,status,W1dAve1m,status,W1sAve1m,
2000-10-19, 00:00:00,VALID,917.32,VALID,0,VALID,99.4331,VALID,-0.0169808,VALID,19.1378,VALID,255,VALID,0,
2000-10-19, 00:01:00,VALID,917.326,VALID,0,VALID,99.4369,VALID,-0.0509425,VALID,19.1314,VALID,285,VALID,0.0382401,
2000-10-19, 00:02:00,VALID,917.307,VALID,0,VALID,99.456,VALID,0.0509425,VALID,19.1588,VALID,311,VALID,0,
2000-10-19, 00:03:00,VALID,917.282,VALID,0,VALID,99.4662,VALID,0.0509425,VALID,19.1784,VALID,40,VALID,0.342383,
2000-10-19, 00:04:00,VALID,917.264,VALID,0,VALID,99.4802,VALID,0.0339617,VALID,19.1978,VALID,23,VALID,0.238076,
2000-10-19, 00:05:00,VALID,917.257,VALID,0,VALID,99.4484,VALID,0.0339617,VALID,19.1717,VALID,344,VALID,0.200658,
2000-10-19, 00:06:00,VALID,917.252,VALID,0,VALID,99.4255,VALID,0.0339617,VALID,19.1359,VALID,17,VALID,0.279561,
2000-10-19, 00:07:00,VALID,917.255,VALID,0,VALID,99.4179,VALID,0.0679233,VALID,19.1329,VALID,129,VALID,0.00400641,
2000-10-19, 00:08:00,VALID,917.237,VALID,0,VALID,99.4357,VALID,0.0849042,VALID,19.1488,VALID,126,VALID,0.0010016,
2000-10-19, 00:09:00,VALID,917.238,VALID,0,VALID,99.4344,VALID,0.0679233,VALID,19.1558,VALID,126,VALID,0,
2000-10-19, 00:10:00,VALID,917.232,VALID,0,VALID,99.4268,VALID,0.0679233,VALID,19.1391,VALID,126,VALID,0,
2000-10-19, 00:11:00,VALID,917.219,VALID,0,VALID,99.4331,VALID,0.0509425,VALID,19.1396,VALID,127,VALID,0.180954,
2000-10-19, 00:12:00,VALID,917.218,VALID,0,VALID,99.4077,VALID,0.0679233,VALID,19.123,VALID,101,VALID,0.519097,
2000-10-19, 00:13:00,VALID,917.197,VALID,0,VALID,99.3962,VALID,0.0849042,VALID,19.117,VALID,79,VALID,0,
2000-10-19, 00:14:00,VALID,917.183,VALID,0,VALID,99.4039,VALID,0.0849042,VALID,19.1299,VALID,122,VALID,0,
2000-10-19, 00:15:00,VALID,917.154,VALID,0,VALID,99.4153,VALID,0.0679233,VALID,19.1232,VALID,122,VALID,0,
2000-10-19, 00:16:00,VALID,917.133,VALID,0,VALID,99.4242,VALID,0.0169808,VALID,19.1304,VALID,122,VALID,0,
2000-10-19, 00:17:00,VALID,917.128,VALID,0,VALID,99.4242,VALID,-0.0679233,VALID,19.1279,VALID,123,VALID,0,
2000-10-19, 00:18:00,VALID,917.105,VALID,0,VALID,99.4331,VALID,-0.0339617,VALID,19.1537,VALID,123,VALID,0,
2000-10-19, 00:19:00,VALID,917.082,VALID,0,VALID,99.4496,VALID,-0.0339617,VALID,19.1833,VALID,126,VALID,0,
2000-10-19, 00:20:00,VALID,917.048,VALID,0,VALID,99.4662,VALID,-0.0679233,VALID,19.2024,VALID,112,VALID,0.0626953,
2000-10-19, 00:21:00,VALID,917.032,VALID,0,VALID,99.4522,VALID,-0.0509425,VALID,19.2022,VALID,108,VALID,0.113076,
2000-10-19, 00:22:00,VALID,917.011,VALID,0,VALID,99.4535,VALID,-0.0509425,VALID,19.2022,VALID,98,VALID,0,
2000-10-19, 00:23:00,VALID,917.004,VALID,0,VALID,99.4496,VALID,-0.0679233,VALID,19.2117,VALID,98,VALID,0,
2000-10-19, 00:24:00,VALID,916.999,VALID,0,VALID,99.4535,VALID,-0.0339617,VALID,19.2218,VALID,98,VALID,0,
2000-10-19, 00:25:00,VALID,917.004,VALID,0,VALID,99.4344,VALID,-0.0679233,VALID,19.1861,VALID,99,VALID,0,
2000-10-19, 00:26:00,VALID,916.993,VALID,0,VALID,99.414,VALID,-0.101885,VALID,19.1764,VALID,329,VALID,0,
2000-10-19, 00:27:00,VALID,916.991,VALID,0,VALID,99.3988,VALID,-0.0849042,VALID,19.151,VALID,308,VALID,0,
2000-10-19, 00:28:00,VALID,916.978,VALID,0,VALID,99.4039,VALID,-0.0339617,VALID,19.1473,VALID,310,VALID,0,
2000-10-19, 00:29:00,VALID,916.968,VALID,0,VALID,99.4204,VALID,-0.0849042,VALID,19.1604,VALID,332,VALID,0.120877,
2000-10-19, 00:30:00,VALID,916.956,VALID,0,VALID,99.4217,VALID,-0.0339617,VALID,19.151,VALID,304,VALID,0.0559544,
2000-10-19, 00:31:00,VALID,916.942,VALID,0,VALID,99.4293,VALID,-0.0339617,VALID,19.1468,VALID,324,VALID,0.293586,
2000-10-19, 00:32:00,VALID,916.914,VALID,0,VALID,99.4357,VALID,-0.0169808,VALID,19.1537,VALID,350,VALID,0.141059,
2000-10-19, 00:33:00,VALID,916.9,VALID,0,VALID,99.4458,VALID,-0.0169808,VALID,19.1625,VALID,322,VALID,0.00105574,
2000-10-19, 00:34:00,VALID,916.869,VALID,0,VALID,99.4268,VALID,-0.0679233,VALID,19.1503,VALID,305,VALID,0.270182,
2000-10-19, 00:35:00,VALID,916.866,VALID,0,VALID,99.4229,VALID,-0.0679233,VALID,19.1311,VALID,308,VALID,0.015625,
2000-10-19, 00:36:00,VALID,916.849,VALID,0,VALID,99.4331,VALID,-0.0679233,VALID,19.1478,VALID,308,VALID,0,
2000-10-19, 00:37:00,VALID,916.818,VALID,0,VALID,99.4408,VALID,-0.0679233,VALID,19.151,VALID,305,VALID,0.000190549,
2000-10-19, 00:38:00,VALID,916.784,VALID,0,VALID,99.4204,VALID,-0.0339617,VALID,19.1341,VALID,286,VALID,0.776367,
2000-10-19, 00:39:00,VALID,916.747,VALID,0,VALID,99.4204,VALID,-0.0679233,VALID,19.1182,VALID,312,VALID,0.452303,
2000-10-19, 00:40:00,VALID,916.713,VALID,0.2,VALID,99.4255,VALID,-0.0679233,VALID,19.0988,VALID,306,VALID,0.220439,
2000-10-19, 00:41:00,VALID,916.699,VALID,0,VALID,99.4293,VALID,-0.101885,VALID,19.0991,VALID,304,VALID,0.200977,
2000-10-19, 00:42:00,VALID,916.706,VALID,0,VALID,99.4242,VALID,-0.0339617,VALID,19.0924,VALID,296,VALID,0.262747,
2000-10-19, 00:43:00,VALID,916.707,VALID,0.2,VALID,99.4306,VALID,-0.0679233,VALID,19.0894,VALID,300,VALID,0.0930804,
2000-10-19, 00:44:00,VALID,916.688,VALID,0,VALID,99.4395,VALID,-0.0849042,VALID,19.0829,VALID,338,VALID,0.273037,
2000-10-19, 00:45:00,VALID,916.671,VALID,0.2,VALID,99.4611,VALID,-0.0849042,VALID,19.1055,VALID,116,VALID,0.132813,
2000-10-19, 00:46:00,VALID,916.667,VALID,0,VALID,99.4713,VALID,-0.0509425,VALID,19.1055,VALID,232,VALID,0.592694,
2000-10-19, 00:47:00,VALID,916.671,VALID,0,VALID,99.4547,VALID,0,VALID,19.1051,VALID,314,VALID,0.86278,
2000-10-19, 00:48:00,VALID,916.67,VALID,0.2,VALID,99.4611,VALID,-0.0339617,VALID,19.1021,VALID,325,VALID,0.0951891,
2000-10-19, 00:49:00,VALID,916.669,VALID,0,VALID,99.484,VALID,-0.0679233,VALID,19.0984,VALID,308,VALID,0,
2000-10-19, 00:50:00,VALID,916.674,VALID,0,VALID,99.4827,VALID,-0.0679233,VALID,19.112,VALID,302,VALID,0,
2000-10-19, 00:51:00,VALID,916.683,VALID,0,VALID,99.4725,VALID,-0.0169808,VALID,19.0956,VALID,322,VALID,0.660807,
2000-10-19, 00:52:00,VALID,916.683,VALID,0,VALID,99.4802,VALID,-0.0339617,VALID,19.0889,VALID,320,VALID,0.754223,
2000-10-19, 00:53:00,VALID,916.681,VALID,0,VALID,99.4725,VALID,0,VALID,19.0986,VALID,295,VALID,0.421875,
2000-10-19, 00:54:00,VALID,916.693,VALID,0,VALID,99.4776,VALID,-0.0169808,VALID,19.0917,VALID,320,VALID,0.319511,
2000-10-19, 00:55:00,VALID,916.707,VALID,0,VALID,99.5031,VALID,0.0169808,VALID,19.124,VALID,322,VALID,0,
2000-10-19, 00:56:00,VALID,916.716,VALID,0,VALID,99.5107,VALID,0,VALID,19.1438,VALID,313,VALID,0,
2000-10-19, 00:57:00,VALID,916.728,VALID,0.2,VALID,99.5056,VALID,0,VALID,19.1205,VALID,323,VALID,0.00123355,
2000-10-19, 00:58:00,VALID,916.728,VALID,0,VALID,99.517,VALID,0,VALID,19.1567,VALID,7,VALID,0,
2000-10-19, 00:59:00,VALID,916.734,VALID,0,VALID,99.5081,VALID,0,VALID,19.163,VALID,347,VALID,0,
2000-10-19, 01:00:00,VALID,916.724,VALID,0.2,VALID,99.498,VALID,0,VALID,19.1572,VALID,299,VALID,0,
2000-10-19, 01:01:00,VALID,916.706,VALID,0,VALID,99.5056,VALID,-0.0169808,VALID,19.1463,VALID,265,VALID,0,
2000-10-19, 01:02:00,VALID,916.674,VALID,0,VALID,99.5018,VALID,0,VALID,19.1664,VALID,281,VALID,0,
2000-10-19, 01:03:00,VALID,916.683,VALID,0.2,VALID,99.5094,VALID,-0.0509425,VALID,19.153,VALID,290,VALID,0,
2000-10-19, 01:04:00,VALID,916.695,VALID,0,VALID,99.4929,VALID,0,VALID,19.157,VALID,301,VALID,0.427083,
2000-10-19, 01:05:00,VALID,916.696,VALID,0,VALID,99.4942,VALID,-0.0849042,VALID,19.1307,VALID,303,VALID,0.240748,
2000-10-19, 01:06:00,VALID,916.692,VALID,0.2,VALID,99.4954,VALID,0,VALID,19.1468,VALID,347,VALID,0.10074,
2000-10-19, 01:07:00,VALID,916.68,VALID,0,VALID,99.5043,VALID,0,VALID,19.1364,VALID,322,VALID,0.0792101,
2000-10-19, 01:08:00,VALID,916.665,VALID,0,VALID,99.5158,VALID,0.0169808,VALID,19.1662,VALID,104,VALID,1.02924,
2000-10-19, 01:09:00,VALID,916.645,VALID,0.2,VALID,99.5183,VALID,0,VALID,19.1759,VALID,343,VALID,0.872327,
2000-10-19, 01:10:00,VALID,916.663,VALID,0,VALID,99.5056,VALID,0,VALID,19.1463,VALID,283,VALID,0.338942,
2000-10-19, 01:11:00,VALID,916.656,VALID,0,VALID,99.5323,VALID,0,VALID,19.1595,VALID,117,VALID,0.65918,
2000-10-19, 01:12:00,VALID,916.63,VALID,0.2,VALID,99.5374,VALID,0,VALID,19.1918,VALID,321,VALID,0.234786,
2000-10-19, 01:13:00,VALID,916.626,VALID,0,VALID,99.5158,VALID,0,VALID,19.1754,VALID,290,VALID,0,
2000-10-19, 01:14:00,VALID,916.629,VALID,0,VALID,99.5209,VALID,0,VALID,19.1662,VALID,193,VALID,0.187099,
2000-10-19, 01:15:00,VALID,916.643,VALID,0,VALID,99.5285,VALID,0,VALID,19.1655,VALID,268,VALID,0.254207,
2000-10-19, 01:16:00,VALID,916.637,VALID,0.2,VALID,99.5272,VALID,-0.0169808,VALID,19.1692,VALID,248,VALID,0.195112,
2000-10-19, 01:17:00,VALID,916.625,VALID,0,VALID,99.5298,VALID,0,VALID,19.1724,VALID,190,VALID,0,
2000-10-19, 01:18:00,VALID,916.634,VALID,0,VALID,99.5081,VALID,0,VALID,19.1622,VALID,167,VALID,0.70332,
2000-10-19, 01:19:00,VALID,916.616,VALID,0,VALID,99.5081,VALID,-0.0169808,VALID,19.1528,VALID,276,VALID,0.494141,
2000-10-19, 01:20:00,VALID,916.619,VALID,0.2,VALID,99.5336,VALID,0.0169808,VALID,19.1592,VALID,157,VALID,0.362847,
2000-10-19, 01:21:00,VALID,916.609,VALID,0,VALID,99.5323,VALID,0,VALID,19.1883,VALID,244,VALID,0.240287,
2000-10-19, 01:22:00,VALID,916.612,VALID,0,VALID,99.5221,VALID,0,VALID,19.1888,VALID,141,VALID,0.518709,
2000-10-19, 01:23:00,VALID,916.581,VALID,0,VALID,99.5336,VALID,-0.0169808,VALID,19.1853,VALID,85,VALID,0.751736,
2000-10-19, 01:24:00,VALID,916.58,VALID,0,VALID,99.5387,VALID,-0.0169808,VALID,19.1953,VALID,100,VALID,1.36761,
2000-10-19, 01:25:00,VALID,916.543,VALID,0,VALID,99.5399,VALID,0,VALID,19.2082,VALID,229,VALID,0.777127,
2000-10-19, 01:26:00,VALID,916.552,VALID,0,VALID,99.5361,VALID,-0.0169808,VALID,19.1923,VALID,258,VALID,0.573808,
2000-10-19, 01:27:00,VALID,916.544,VALID,0,VALID,99.5374,VALID,-0.0169808,VALID,19.1823,VALID,139,VALID,0.742188,
2000-10-19, 01:28:00,VALID,916.529,VALID,0,VALID,99.5501,VALID,0,VALID,19.205,VALID,98,VALID,1.39329,
2000-10-19, 01:29:00,VALID,916.496,VALID,0,VALID,99.5539,VALID,0.0169808,VALID,19.2082,VALID,75,VALID,0.672266,
2000-10-19, 01:30:00,VALID,916.508,VALID,0,VALID,99.5476,VALID,0,VALID,19.198,VALID,66,VALID,0.148026,
2000-10-19, 01:31:00,VALID,916.493,VALID,0,VALID,99.5527,VALID,0,VALID,19.2184,VALID,194,VALID,0.277238,
2000-10-19, 01:32:00,VALID,916.491,VALID,0,VALID,99.5628,VALID,0,VALID,19.2112,VALID,188,VALID,0.343359,
2000-10-19, 01:33:00,VALID,916.466,VALID,0,VALID,99.5628,VALID,-0.0169808,VALID,19.2308,VALID,91,VALID,1.57998,
2000-10-19, 01:34:00,VALID,916.465,VALID,0,VALID,99.5577,VALID,-0.0169808,VALID,19.2345,VALID,90,VALID,1.36696,
2000-10-19, 01:35:00,VALID,916.438,VALID,0,VALID,99.5565,VALID,-0.0169808,VALID,19.2213,VALID,122,VALID,0.954127,
2000-10-19, 01:36:00,VALID,916.447,VALID,0,VALID,99.5514,VALID,-0.0169808,VALID,19.202,VALID,77,VALID,1.21897,
2000-10-19, 01:37:00,VALID,916.436,VALID,0,VALID,99.5577,VALID,0,VALID,19.199,VALID,68,VALID,1.92525,
2000-10-19, 01:38:00,VALID,916.393,VALID,0,VALID,99.5743,VALID,-0.0169808,VALID,19.2054,VALID,73,VALID,1.36418,
2000-10-19, 01:39:00,VALID,916.409,VALID,0,VALID,99.5743,VALID,-0.0509425,VALID,19.1982,VALID,328,VALID,1.02488,
2000-10-19, 01:40:00,VALID,916.404,VALID,0,VALID,99.5844,VALID,0,VALID,19.2047,VALID,43,VALID,0.407689,
2000-10-19, 01:41:00,VALID,916.41,VALID,0,VALID,99.5908,VALID,-0.0339617,VALID,19.2117,VALID,122,VALID,0.471284,
2000-10-19, 01:42:00,VALID,916.402,VALID,0,VALID,99.573,VALID,-0.0509425,VALID,19.2054,VALID,114,VALID,0.891059,
2000-10-19, 01:43:00,VALID,916.392,VALID,0,VALID,99.5959,VALID,-0.0169808,VALID,19.2112,VALID,97,VALID,1.2348,
2000-10-19, 01:44:00,VALID,916.39,VALID,0,VALID,99.62,VALID,-0.0169808,VALID,19.2507,VALID,94,VALID,1.04379,
2000-10-19, 01:45:00,VALID,916.365,VALID,0,VALID,99.6073,VALID,-0.0169808,VALID,19.2333,VALID,84,VALID,1.22155,
2000-10-19, 01:46:00,VALID,916.362,VALID,0,VALID,99.6099,VALID,0,VALID,19.2273,VALID,302,VALID,0.381811,
2000-10-19, 01:47:00,VALID,916.381,VALID,0,VALID,99.5908,VALID,-0.0169808,VALID,19.2213,VALID,134,VALID,0.665752,
2000-10-19, 01:48:00,VALID,916.373,VALID,0,VALID,99.6099,VALID,0,VALID,19.2146,VALID,287,VALID,0.938939,
2000-10-19, 01:49:00,VALID,916.358,VALID,0,VALID,99.5946,VALID,0,VALID,19.205,VALID,174,VALID,0.709135,
2000-10-19, 01:50:00,VALID,916.357,VALID,0,VALID,99.6035,VALID,0,VALID,19.1886,VALID,122,VALID,0.320513,
2000-10-19, 01:51:00,VALID,916.353,VALID,0,VALID,99.6099,VALID,0,VALID,19.1918,VALID,168,VALID,0.107077,
2000-10-19, 01:52:00,VALID,916.352,VALID,0,VALID,99.6213,VALID,0,VALID,19.195,VALID,215,VALID,0,
2000-10-19, 01:53:00,VALID,916.352,VALID,0,VALID,99.6366,VALID,0,VALID,19.2052,VALID,238,VALID,0,
2000-10-19, 01:54:00,VALID,916.347,VALID,0,VALID,99.6455,VALID,-0.0169808,VALID,19.2015,VALID,125,VALID,0,
2000-10-19, 01:55:00,VALID,916.36,VALID,0,VALID,99.6569,VALID,0,VALID,19.2243,VALID,105,VALID,0,
2000-10-19, 01:56:00,VALID,916.36,VALID,0,VALID,99.6556,VALID,0,VALID,19.2435,VALID,110,VALID,0,
2000-10-19, 01:57:00,VALID,916.356,VALID,0,VALID,99.6518,VALID,0,VALID,19.2209,VALID,174,VALID,0,
2000-10-19, 01:58:00,VALID,916.351,VALID,0,VALID,99.6595,VALID,0,VALID,19.2211,VALID,195,VALID,0.0809462,
2000-10-19, 01:59:00,VALID,916.32,VALID,0,VALID,99.6595,VALID,0,VALID,19.2211,VALID,185,VALID,0.477232,
2000-10-19, 02:00:00,VALID,916.3,VALID,0,VALID,99.6595,VALID,0,VALID,19.2243,VALID,78,VALID,0.547697,
2000-10-19, 02:01:00,VALID,916.29,VALID,0,VALID,99.6747,VALID,0,VALID,19.2407,VALID,52,VALID,0.940505,
2000-10-19, 02:02:00,VALID,916.294,VALID,0,VALID,99.6607,VALID,-0.0169808,VALID,19.2209,VALID,265,VALID,0.924609,
2000-10-19, 02:03:00,VALID,916.272,VALID,0,VALID,99.6582,VALID,0,VALID,19.1893,VALID,18,VALID,0.765831,
2000-10-19, 02:04:00,VALID,916.241,VALID,0,VALID,99.6607,VALID,-0.0339617,VALID,19.1592,VALID,305,VALID,0.443257,
2000-10-19, 02:05:00,VALID,916.25,VALID,0,VALID,99.6747,VALID,-0.0169808,VALID,19.1692,VALID,53,VALID,1.0643,
2000-10-19, 02:06:00,VALID,916.239,VALID,0,VALID,99.69,VALID,-0.0169808,VALID,19.1915,VALID,346,VALID,0.599559,
2000-10-19, 02:07:00,VALID,916.252,VALID,0,VALID,99.6836,VALID,-0.0339617,VALID,19.1888,VALID,288,VALID,0.322115,
2000-10-19, 02:08:00,VALID,916.237,VALID,0,VALID,99.6862,VALID,-0.0169808,VALID,19.1985,VALID,248,VALID,0.326976,
2000-10-19, 02:09:00,VALID,916.228,VALID,0,VALID,99.6811,VALID,-0.0339617,VALID,19.1888,VALID,192,VALID,0.132031,
2000-10-19, 02:10:00,VALID,916.231,VALID,0,VALID,99.6849,VALID,-0.0169808,VALID,19.1821,VALID,262,VALID,0.183594,
2000-10-19, 02:11:00,VALID,916.225,VALID,0,VALID,99.6887,VALID,-0.0169808,VALID,19.1796,VALID,30,VALID,0.926649,
2000-10-19, 02:12:00,VALID,916.233,VALID,0,VALID,99.7091,VALID,-0.0169808,VALID,19.2024,VALID,101,VALID,0.987331,
2000-10-19, 02:13:00,VALID,916.223,VALID,0.2,VALID,99.7192,VALID,-0.0339617,VALID,19.1953,VALID,52,VALID,0.561883,
2000-10-19, 02:14:00,VALID,916.224,VALID,0,VALID,99.7141,VALID,0,VALID,19.1724,VALID,207,VALID,0.419488,
2000-10-19, 02:15:00,VALID,916.23,VALID,0,VALID,99.7141,VALID,-0.0169808,VALID,19.1466,VALID,326,VALID,0.740498,
2000-10-19, 02:16:00,VALID,916.238,VALID,0,VALID,99.7027,VALID,-0.0339617,VALID,19.154,VALID,327,VALID,0.539063,
2000-10-19, 02:17:00,VALID,916.216,VALID,0,VALID,99.7091,VALID,0,VALID,19.1016,VALID,331,VALID,1.11102,
2000-10-19, 02:18:00,VALID,916.204,VALID,0,VALID,99.723,VALID,-0.0169808,VALID,19.1244,VALID,95,VALID,1.23691,
2000-10-19, 02:19:00,VALID,916.174,VALID,0.2,VALID,99.7421,VALID,-0.0339617,VALID,19.1602,VALID,87,VALID,0.617378,
2000-10-19, 02:20:00,VALID,916.166,VALID,0,VALID,99.7192,VALID,0,VALID,19.1565,VALID,274,VALID,0.808398,
2000-10-19, 02:21:00,VALID,916.146,VALID,0,VALID,99.7281,VALID,-0.0339617,VALID,19.1269,VALID,317,VALID,0.564762,
2000-10-19, 02:22:00,VALID,916.138,VALID,0,VALID,99.7256,VALID,-0.0169808,VALID,19.118,VALID,46,VALID,0.849029,
2000-10-19, 02:23:00,VALID,916.108,VALID,0.2,VALID,99.7459,VALID,0,VALID,19.1374,VALID,103,VALID,0.735937,
2000-10-19, 02:24:00,VALID,916.105,VALID,0,VALID,99.7383,VALID,-0.0339617,VALID,19.121,VALID,299,VALID,0.728618,
2000-10-19, 02:25:00,VALID,916.092,VALID,0,VALID,99.7332,VALID,-0.0169808,VALID,19.1145,VALID,326,VALID,0.398661,
2000-10-19, 02:26:00,VALID,916.075,VALID,0,VALID,99.7447,VALID,0,VALID,19.1113,VALID,121,VALID,0.574319,
2000-10-19, 02:27:00,VALID,916.06,VALID,0,VALID,99.7358,VALID,-0.0509425,VALID,19.1247,VALID,98,VALID,0.931641,
2000-10-19, 02:28:00,VALID,916.056,VALID,0,VALID,99.7408,VALID,-0.0169808,VALID,19.1212,VALID,82,VALID,0.624367,
2000-10-19, 02:29:00,VALID,916.055,VALID,0,VALID,99.7447,VALID,-0.0169808,VALID,19.1212,VALID,316,VALID,0.724159,
2000-10-19, 02:30:00,VALID,916.045,VALID,0,VALID,99.7408,VALID,0,VALID,19.0725,VALID,354,VALID,1.1322,
2000-10-19, 02:31:00,VALID,916.026,VALID,0,VALID,99.7396,VALID,-0.0509425,VALID,19.0857,VALID,29,VALID,0.742804,
2000-10-19, 02:32:00,VALID,916.018,VALID,0,VALID,99.7472,VALID,-0.0339617,VALID,19.1018,VALID,106,VALID,0.645481,
2000-10-19, 02:33:00,VALID,916.001,VALID,0,VALID,99.7574,VALID,-0.0169808,VALID,19.0988,VALID,268,VALID,0.644965,
2000-10-19, 02:34:00,VALID,915.998,VALID,0,VALID,99.7561,VALID,-0.0169808,VALID,19.1021,VALID,137,VALID,0.329392,
2000-10-19, 02:35:00,VALID,915.973,VALID,0,VALID,99.7777,VALID,0.0169808,VALID,19.1143,VALID,105,VALID,0.142064,
2000-10-19, 02:36:00,VALID,915.975,VALID,0,VALID,99.7625,VALID,0,VALID,19.1115,VALID,187,VALID,0.200521,
2000-10-19, 02:37:00,VALID,915.998,VALID,0,VALID,99.7574,VALID,-0.0169808,VALID,19.0951,VALID,213,VALID,0.359175,
2000-10-19, 02:38:00,VALID,915.98,VALID,0,VALID,99.7612,VALID,0,VALID,19.0984,VALID,127,VALID,0.217483,
2000-10-19, 02:39:00,VALID,915.983,VALID,0.2,VALID,99.7625,VALID,0,VALID,19.0852,VALID,240,VALID,0.185444,
2000-10-19, 02:40:00,VALID,915.978,VALID,0,VALID,99.7726,VALID,0,VALID,19.0921,VALID,250,VALID,0.0358574,
2000-10-19, 02:41:00,VALID,915.961,VALID,0,VALID,99.7777,VALID,0,VALID,19.0889,VALID,155,VALID,0.245393,
2000-10-19, 02:42:00,VALID,915.931,VALID,0,VALID,99.7803,VALID,-0.0169808,VALID,19.0954,VALID,132,VALID,0.719899,
2000-10-19, 02:43:00,VALID,915.885,VALID,0,VALID,99.7841,VALID,-0.0679233,VALID,19.1118,VALID,83,VALID,0.683594,
2000-10-19, 02:44:00,VALID,915.855,VALID,0,VALID,99.7904,VALID,0,VALID,19.1212,VALID,89,VALID,0.690245,
2000-10-19, 02:45:00,VALID,915.859,VALID,0,VALID,99.7917,VALID,-0.0339617,VALID,19.121,VALID,76,VALID,0.401476,
2000-10-19, 02:46:00,VALID,915.874,VALID,0,VALID,99.7968,VALID,0,VALID,19.121,VALID,128,VALID,0.420356,
2000-10-19, 02:47:00,VALID,915.867,VALID,0,VALID,99.7917,VALID,0,VALID,19.1279,VALID,153,VALID,0.157895,
2000-10-19, 02:48:00,VALID,915.861,VALID,0,VALID,99.7815,VALID,-0.0339617,VALID,19.115,VALID,128,VALID,0.380757,
2000-10-19, 02:49:00,VALID,915.839,VALID,0,VALID,99.793,VALID,-0.0169808,VALID,19.1118,VALID,112,VALID,0.379557,
2000-10-19, 02:50:00,VALID,915.835,VALID,0,VALID,99.7968,VALID,0,VALID,19.0884,VALID,131,VALID,0.298438,
2000-10-19, 02:51:00,VALID,915.814,VALID,0,VALID,99.7917,VALID,0,VALID,19.1018,VALID,242,VALID,0.442023,
2000-10-19, 02:52:00,VALID,915.809,VALID,0,VALID,99.7968,VALID,-0.0339617,VALID,19.0824,VALID,251,VALID,0.567708,
2000-10-19, 02:53:00,VALID,915.811,VALID,0,VALID,99.7917,VALID,0,VALID,19.0859,VALID,274,VALID,0.149023,
2000-10-19, 02:54:00,VALID,915.792,VALID,0,VALID,99.7968,VALID,-0.0169808,VALID,19.0723,VALID,254,VALID,0.0180921,
2000-10-19, 02:55:00,VALID,915.797,VALID,0,VALID,99.7993,VALID,0,VALID,19.079,VALID,179,VALID,0.42537,
2000-10-19, 02:56:00,VALID,915.778,VALID,0,VALID,99.7892,VALID,0,VALID,19.0663,VALID,93,VALID,0.656851,
2000-10-19, 02:57:00,VALID,915.78,VALID,0,VALID,99.8044,VALID,0,VALID,19.0822,VALID,134,VALID,0.667067,
2000-10-19, 02:58:00,VALID,915.747,VALID,0,VALID,99.793,VALID,0,VALID,19.079,VALID,140,VALID,0.510216,
2000-10-19, 02:59:00,VALID,915.724,VALID,0,VALID,99.8044,VALID,-0.0169808,VALID,19.072,VALID,244,VALID,0.308364,
2000-10-19, 03:00:00,VALID,915.71,VALID,0,VALID,99.7993,VALID,0,VALID,19.0663,VALID,355,VALID,0.789648,
2000-10-19, 03:01:00,VALID,915.685,VALID,0,VALID,99.793,VALID,-0.0169808,VALID,19.0499,VALID,114,VALID,1.06858,
2000-10-19, 03:02:00,VALID,915.695,VALID,0,VALID,99.7981,VALID,0,VALID,19.0792,VALID,17,VALID,0.360243,
2000-10-19, 03:03:00,VALID,915.679,VALID,0,VALID,99.807,VALID,0,VALID,19.073,VALID,98,VALID,1.18729,
2000-10-19, 03:04:00,VALID,915.651,VALID,0,VALID,99.8121,VALID,-0.0169808,VALID,19.0725,VALID,113,VALID,1.10999,
2000-10-19, 03:05:00,VALID,915.645,VALID,0,VALID,99.7955,VALID,-0.0169808,VALID,19.0698,VALID,103,VALID,1.15885,
2000-10-19, 03:06:00,VALID,915.642,VALID,0,VALID,99.8006,VALID,-0.0169808,VALID,19.0568,VALID,48,VALID,0.418919,
2000-10-19, 03:07:00,VALID,915.642,VALID,0,VALID,99.8082,VALID,0,VALID,19.0439,VALID,46,VALID,0,
2000-10-19, 03:08:00,VALID,915.664,VALID,0,VALID,99.8044,VALID,-0.0169808,VALID,19.0437,VALID,74,VALID,0.281044,
2000-10-19, 03:09:00,VALID,915.653,VALID,0,VALID,99.8184,VALID,0,VALID,19.07,VALID,109,VALID,0.0874155,
2000-10-19, 03:10:00,VALID,915.66,VALID,0,VALID,99.8019,VALID,-0.0169808,VALID,19.0469,VALID,147,VALID,0,
2000-10-19, 03:11:00,VALID,915.65,VALID,0,VALID,99.8095,VALID,-0.0339617,VALID,19.0534,VALID,214,VALID,0.00117188,
2000-10-19, 03:12:00,VALID,915.654,VALID,0,VALID,99.8146,VALID,-0.0169808,VALID,19.0665,VALID,246,VALID,0.0530428,
2000-10-19, 03:13:00,VALID,915.644,VALID,0,VALID,99.8171,VALID,0,VALID,19.0598,VALID,311,VALID,0.131757,
2000-10-19, 03:14:00,VALID,915.657,VALID,0,VALID,99.8222,VALID,0,VALID,19.0631,VALID,242,VALID,0.0523437,
2000-10-19, 03:15:00,VALID,915.65,VALID,0,VALID,99.8248,VALID,-0.0339617,VALID,19.0695,VALID,113,VALID,0.32977,
2000-10-19, 03:16:00,VALID,915.647,VALID,0,VALID,99.8299,VALID,-0.0169808,VALID,19.0596,VALID,156,VALID,0.316295,
2000-10-19, 03:17:00,VALID,915.635,VALID,0,VALID,99.821,VALID,0,VALID,19.0471,VALID,130,VALID,0.355369,
2000-10-19, 03:18:00,VALID,915.61,VALID,0,VALID,99.826,VALID,-0.0169808,VALID,19.0437,VALID,137,VALID,0.165148,
2000-10-19, 03:19:00,VALID,915.626,VALID,0,VALID,99.8299,VALID,-0.0509425,VALID,19.0245,VALID,74,VALID,0.394426,
2000-10-19, 03:20:00,VALID,915.599,VALID,0,VALID,99.8235,VALID,-0.0169808,VALID,19.0079,VALID,135,VALID,0.611178,
2000-10-19, 03:21:00,VALID,915.575,VALID,0,VALID,99.8362,VALID,0.0169808,VALID,19.0116,VALID,100,VALID,1.41283,
2000-10-19, 03:22:00,VALID,915.57,VALID,0,VALID,99.8489,VALID,0,VALID,19.031,VALID,100,VALID,1.32237,
2000-10-19, 03:23:00,VALID,915.574,VALID,0,VALID,99.84,VALID,-0.0509425,VALID,19.0474,VALID,100,VALID,1.1402,
2000-10-19, 03:24:00,VALID,915.602,VALID,0,VALID,99.84,VALID,-0.0169808,VALID,19.0404,VALID,108,VALID,0.795139,
2000-10-19, 03:25:00,VALID,915.607,VALID,0,VALID,99.8235,VALID,-0.0679233,VALID,19.0243,VALID,157,VALID,0.40625,
2000-10-19, 03:26:00,VALID,915.632,VALID,0,VALID,99.8388,VALID,0,VALID,19.0114,VALID,271,VALID,0.142064,
2000-10-19, 03:27:00,VALID,915.665,VALID,0,VALID,99.8527,VALID,0,VALID,19.0245,VALID,259,VALID,0,
2000-10-19, 03:28:00,VALID,915.695,VALID,0,VALID,99.8248,VALID,-0.0169808,VALID,19.0181,VALID,186,VALID,0,
2000-10-19, 03:29:00,VALID,915.706,VALID,0,VALID,99.8337,VALID,0,VALID,19.0047,VALID,194,VALID,0.240076,
2000-10-19, 03:30:00,VALID,915.699,VALID,0,VALID,99.8375,VALID,-0.0169808,VALID,19.0054,VALID,10,VALID,0.818462,
2000-10-19, 03:31:00,VALID,915.721,VALID,0,VALID,99.8311,VALID,0,VALID,18.9918,VALID,308,VALID,0,
2000-10-19, 03:32:00,VALID,915.737,VALID,0,VALID,99.8413,VALID,0,VALID,19.0017,VALID,170,VALID,0.432893,
2000-10-19, 03:33:00,VALID,915.746,VALID,0,VALID,99.854,VALID,-0.0169808,VALID,19.0086,VALID,110,VALID,0.431296,
2000-10-19, 03:34:00,VALID,915.743,VALID,0,VALID,99.854,VALID,-0.0169808,VALID,19.0151,VALID,113,VALID,0.184211,
2000-10-19, 03:35:00,VALID,915.739,VALID,0,VALID,99.854,VALID,0,VALID,19.0273,VALID,110,VALID,0.616343,
2000-10-19, 03:36:00,VALID,915.736,VALID,0,VALID,99.8578,VALID,-0.0339617,VALID,19.0273,VALID,116,VALID,0.577691,